When you browse on this site, cookies collect data to enhance your experience and personalize the content and advertising you see.
Visit our Privacy Policy to learn more. By continuing to use the site, you agree to this use of cookies and data.
EN

Hourly Weather Potsdam

Today, 11 August, Tuesday

Time Temperature Precipitation Wind Pressure Humidity
00:00 +21°C° 0.2 mm 2 mps 760 mmHg 81%
01:00 +20°C° 0 mm 2 mps 760 mmHg 82%
02:00 +20°C° 0.5 mm 2 mps 760 mmHg 84%
03:00 +20°C° 0.5 mm 2 mps 760 mmHg 87%
04:00 +20°C° 0.5 mm 2 mps 760 mmHg 89%
05:00 +21°C° 0 mm 3 mps 760 mmHg 87%
06:00 +21°C° 0 mm 3 mps 760 mmHg 85%
07:00 +22°C° 0 mm 4 mps 760 mmHg 83%
08:00 +25°C° 0 mm 4 mps 761 mmHg 76%
09:00 +26°C° 0 mm 4 mps 761 mmHg 68%
10:00 +28°C° 0 mm 4 mps 761 mmHg 61%
11:00 +29°C° 0 mm 4 mps 761 mmHg 55%
12:00 +30°C° 0 mm 4 mps 761 mmHg 49%
13:00 +32°C° 0 mm 4 mps 761 mmHg 42%
14:00 +32°C° 0 mm 4 mps 761 mmHg 41%
15:00 +32°C° 0 mm 4 mps 760 mmHg 40%
16:00 +32°C° 0 mm 4 mps 760 mmHg 39%
17:00 +30°C° 0 mm 4 mps 760 mmHg 44%
18:00 +28°C° 0 mm 4 mps 760 mmHg 49%
19:00 +27°C° 0 mm 3 mps 760 mmHg 54%
20:00 +26°C° 0 mm 3 mps 761 mmHg 57%
21:00 +25°C° 0 mm 3 mps 761 mmHg 61%
22:00 +22°C° 0 mm 3 mps 761 mmHg 65%
23:00 +22°C° 0 mm 3 mps 761 mmHg 66%

Tomorrow, 12 August, Wednesday

Time Temperature Precipitation Wind Pressure Humidity
00:00 +21°C° 0 mm 3 mps 761 mmHg 68%
01:00 +20°C° 0 mm 3 mps 761 mmHg 69%
02:00 +20°C° 0 mm 2 mps 761 mmHg 70%
03:00 +19°C° 0 mm 2 mps 761 mmHg 70%
04:00 +18°C° 0 mm 2 mps 761 mmHg 71%
05:00 +19°C° 0 mm 3 mps 761 mmHg 71%
06:00 +19°C° 0 mm 3 mps 761 mmHg 71%
07:00 +20°C° 0 mm 3 mps 761 mmHg 70%
08:00 +22°C° 0 mm 3 mps 761 mmHg 64%
09:00 +25°C° 0 mm 3 mps 761 mmHg 57%
10:00 +27°C° 0 mm 3 mps 761 mmHg 50%
11:00 +28°C° 0 mm 3 mps 761 mmHg 46%
12:00 +29°C° 0 mm 3 mps 761 mmHg 42%
13:00 +30°C° 0 mm 3 mps 761 mmHg 38%
14:00 +30°C° 0 mm 3 mps 760 mmHg 39%
15:00 +30°C° 0 mm 3 mps 760 mmHg 39%
16:00 +31°C° 0 mm 3 mps 760 mmHg 39%
17:00 +29°C° 0 mm 3 mps 760 mmHg 46%
18:00 +28°C° 0 mm 3 mps 759 mmHg 52%
19:00 +26°C° 0 mm 3 mps 759 mmHg 58%
20:00 +25°C° 0 mm 3 mps 759 mmHg 58%
21:00 +24°C° 0 mm 3 mps 759 mmHg 59%
22:00 +22°C° 0 mm 3 mps 759 mmHg 59%
23:00 +21°C° 0 mm 3 mps 759 mmHg 60%

Day after tomorrow, 13 August, Thursday

Time Temperature Precipitation Wind Pressure Humidity
00:00 +21°C° 0 mm 3 mps 759 mmHg 61%
01:00 +20°C° 0 mm 3 mps 759 mmHg 62%
02:00 +19°C° 0 mm 3 mps 759 mmHg 65%
03:00 +19°C° 0 mm 3 mps 759 mmHg 69%
04:00 +18°C° 0 mm 2 mps 758 mmHg 72%
05:00 +19°C° 0 mm 2 mps 758 mmHg 70%
06:00 +20°C° 0 mm 3 mps 758 mmHg 69%
07:00 +21°C° 0 mm 3 mps 758 mmHg 67%
08:00 +24°C° 0 mm 3 mps 758 mmHg 62%
09:00 +26°C° 0 mm 3 mps 758 mmHg 57%
10:00 +28°C° 0 mm 3 mps 758 mmHg 51%
11:00 +29°C° 0 mm 2 mps 758 mmHg 47%
12:00 +30°C° 0 mm 2 mps 757 mmHg 43%
13:00 +32°C° 0 mm 2 mps 757 mmHg 39%
14:00 +32°C° 0 mm 2 mps 757 mmHg 37%
15:00 +32°C° 0 mm 1 mps 756 mmHg 35%
16:00 +32°C° 0 mm 1 mps 756 mmHg 33%
17:00 +31°C° 0 mm 2 mps 756 mmHg 39%
18:00 +29°C° 0 mm 2 mps 756 mmHg 45%
19:00 +27°C° 0 mm 2 mps 756 mmHg 51%
20:00 +26°C° 0 mm 3 mps 756 mmHg 53%
21:00 +25°C° 0 mm 3 mps 756 mmHg 55%
22:00 +24°C° 0 mm 3 mps 756 mmHg 57%
23:00 +22°C° 0 mm 3 mps 756 mmHg 58%

14 August, Friday

Time Temperature Precipitation Wind Pressure Humidity
00:00 +21°C° 0 mm 3 mps 756 mmHg 60%
01:00 +21°C° 0 mm 3 mps 756 mmHg 61%
02:00 +20°C° 0 mm 2 mps 756 mmHg 63%
03:00 +20°C° 0 mm 2 mps 756 mmHg 64%
04:00 +19°C° 0 mm 2 mps 756 mmHg 66%
05:00 +20°C° 0 mm 2 mps 756 mmHg 65%
06:00 +21°C° 0 mm 3 mps 756 mmHg 64%
07:00 +21°C° 0 mm 3 mps 756 mmHg 63%
08:00 +24°C° 0 mm 3 mps 756 mmHg 57%
09:00 +26°C° 0 mm 3 mps 756 mmHg 51%
10:00 +28°C° 0 mm 3 mps 756 mmHg 46%
11:00 +29°C° 0 mm 2 mps 756 mmHg 42%
12:00 +30°C° 0 mm 2 mps 756 mmHg 37%
13:00 +31°C° 0 mm 2 mps 756 mmHg 33%
14:00 +32°C° 0 mm 2 mps 755 mmHg 33%
15:00 +32°C° 0 mm 2 mps 755 mmHg 32%
16:00 +32°C° 0 mm 2 mps 755 mmHg 31%
17:00 +30°C° 0 mm 2 mps 755 mmHg 37%
18:00 +29°C° 0 mm 2 mps 756 mmHg 42%
19:00 +27°C° 0 mm 3 mps 756 mmHg 48%
20:00 +26°C° 0 mm 2 mps 756 mmHg 51%
21:00 +25°C° 0 mm 2 mps 756 mmHg 54%
22:00 +24°C° 0 mm 2 mps 757 mmHg 57%
23:00 +24°C° 0 mm 2 mps 757 mmHg 61%

15 August, Saturday

Time Temperature Precipitation Wind Pressure Humidity
00:00 +23°C° 0 mm 2 mps 757 mmHg 65%
01:00 +23°C° 0 mm 2 mps 757 mmHg 68%
02:00 +21°C° 0 mm 2 mps 757 mmHg 69%
03:00 +21°C° 0 mm 2 mps 757 mmHg 71%
04:00 +20°C° 0 mm 2 mps 757 mmHg 72%
05:00 +21°C° 0 mm 2 mps 757 mmHg 70%
06:00 +21°C° 0 mm 2 mps 757 mmHg 68%
07:00 +23°C° 0 mm 2 mps 757 mmHg 65%
08:00 +25°C° 0 mm 2 mps 758 mmHg 59%
09:00 +27°C° 0 mm 3 mps 758 mmHg 54%
10:00 +29°C° 0 mm 3 mps 758 mmHg 48%
11:00 +30°C° 0 mm 3 mps 758 mmHg 43%
12:00 +30°C° 0 mm 2 mps 758 mmHg 39%
13:00 +31°C° 0 mm 2 mps 757 mmHg 34%
14:00 +31°C° 0 mm 2 mps 757 mmHg 34%
15:00 +31°C° 0 mm 3 mps 757 mmHg 33%
16:00 +33°C° 0 mm 3 mps 757 mmHg 32%
17:00 +30°C° 0 mm 3 mps 757 mmHg 38%
18:00 +28°C° 0 mm 3 mps 757 mmHg 44%
19:00 +27°C° 0 mm 3 mps 757 mmHg 50%
20:00 +25°C° 0 mm 3 mps 758 mmHg 51%
21:00 +24°C° 0 mm 3 mps 758 mmHg 53%
22:00 +22°C° 0 mm 3 mps 758 mmHg 55%
23:00 +22°C° 0 mm 3 mps 758 mmHg 58%

16 August, Sunday

Time Temperature Precipitation Wind Pressure Humidity
00:00 +21°C° 0 mm 2 mps 758 mmHg 61%
01:00 +20°C° 0 mm 2 mps 758 mmHg 63%
02:00 +20°C° 0 mm 2 mps 758 mmHg 66%
03:00 +19°C° 0 mm 2 mps 758 mmHg 68%
04:00 +19°C° 0 mm 2 mps 758 mmHg 70%
05:00 +19°C° 0 mm 2 mps 758 mmHg 68%
06:00 +20°C° 0 mm 3 mps 759 mmHg 66%
07:00 +21°C° 0 mm 3 mps 759 mmHg 63%
08:00 +24°C° 0 mm 3 mps 759 mmHg 58%
09:00 +25°C° 0 mm 4 mps 759 mmHg 53%
10:00 +27°C° 0 mm 4 mps 759 mmHg 47%
11:00 +28°C° 0 mm 4 mps 759 mmHg 44%
12:00 +29°C° 0 mm 4 mps 759 mmHg 41%
13:00 +30°C° 0 mm 4 mps 758 mmHg 38%
14:00 +30°C° 0 mm 4 mps 758 mmHg 38%
15:00 +30°C° 0 mm 4 mps 758 mmHg 37%
16:00 +30°C° 0 mm 4 mps 757 mmHg 37%
17:00 +29°C° 0 mm 4 mps 757 mmHg 41%
18:00 +27°C° 0 mm 3 mps 757 mmHg 45%
19:00 +26°C° 0 mm 3 mps 757 mmHg 50%
20:00 +25°C° 0 mm 3 mps 758 mmHg 52%
21:00 +24°C° 0 mm 3 mps 758 mmHg 54%
22:00 +22°C° 0 mm 3 mps 758 mmHg 56%
23:00 +21°C° 0 mm 3 mps 758 mmHg 58%
Show more